Location: Burla
(50.9568°N, 10.4983°E)
Time: 14:31:19
(UTC+00:00)

BREEZE-M DEB (TANK) - Pass Details

Date: 18 January 2026
Orbit: 313 x 11318 km, 49.7° (Epoch: 9 February)

Event Time Altitude Azimuth Distance (km) Brightness Sun altitude
Exits shadow 05:22:19 44° 209° (SSW) 454 2.7 -16.7°
Maximum altitude 05:22:26 44° 196° (SSW) 447 2.8 -16.7°
Drops below altitude 10° 05:24:42 10° 121° (ESE) 1,270 6.3 -16.4°
Sets 05:26:52 0° 114° (ESE) 2,368 8.2 -16.0°
